CW9455 Weather Reports


time (UTC)temp
C
wind
direction
speed
KPH
gust
KPH
rain 1hr
cm
rain 24hr
cm
rain mn
cm
humidity
%
barometer
mb
20260504235642 12 288 22.5 41.8 0.00 0.00 0.00 61 1009.2
20260504234912 12 280 22.5 43.5 0.00 0.00 0.00 62 1009.1
20260504234409 12 234 22.5 43.5 0.00 0.00 0.00 61 1009.2
20260504233909 12 265 20.9 38.6 0.00 0.00 0.00 61 1009.1
20260504233409 12 223 20.9 38.6 0.00 0.00 0.00 61 1009.2
20260504232910 12 284 20.9 43.5 0.00 0.00 0.00 61 1009.1
20260504232408 13 255 22.5 43.5 0.00 0.00 0.00 61 1009.0
20260504231909 13 237 24.1 41.8 0.00 0.00 0.00 60 1009.0
20260504231408 13 218 24.1 41.8 0.00 0.00 0.00 60 1009.1
20260504231127 13 217 24.1 41.8 0.00 0.00 0.00 59 1009.0
20260504230409 13 225 24.1 41.8 0.00 0.00 0.00 59 1009.1
20260504225909 13 236 24.1 41.8 0.00 0.00 0.00 59 1009.1
20260504225410 13 259 24.1 43.5 0.00 0.00 0.00 58 1009.0
20260504224904 13 211 24.1 43.5 0.00 0.00 0.00 58 1009.1
20260504224405 13 246 25.7 48.3 0.00 0.00 0.00 57 1009.1
20260504224126 13 227 25.7 48.3 0.00 0.00 0.00 57 1009.1
20260504223405 14 273 24.1 46.7 0.00 0.00 0.00 57 1009.1
20260504222905 14 248 24.1 45.1 0.00 0.00 0.00 57 1009.1
20260504222405 14 244 24.1 45.1 0.00 0.00 0.00 56 1009.1
20260504221906 14 231 24.1 41.8 0.00 0.00 0.00 57 1009.1
20260504221404 14 265 25.7 48.3 0.00 0.00 0.00 56 1009.2
20260504220905 14 257 25.7 48.3 0.00 0.00 0.00 55 1009.2
20260504220400 14 241 24.1 43.5 0.00 0.00 0.00 55 1009.2
20260504215900 15 253 24.1 43.5 0.00 0.00 0.00 55 1009.3
20260504215400 15 294 24.1 43.5 0.00 0.00 0.00 55 1009.3
20260504214859 15 248 24.1 43.5 0.00 0.00 0.00 54 1009.2
20260504214400 15 226 22.5 45.1 0.00 0.00 0.00 54 1009.3
20260504213904 15 235 24.1 45.1 0.00 0.00 0.00 53 1009.3
20260504213358 15 279 22.5 38.6 0.00 0.00 0.00 53 1009.3
20260504212900 15 241 20.9 38.6 0.00 0.00 0.00 53 1009.3
20260504212359 15 213 20.9 40.2 0.00 0.00 0.00 52 1009.2
20260504212115 15 253 22.5 40.2 0.00 0.00 0.00 52 1009.2
20260504211621 15 229 22.5 38.6 0.00 0.00 0.00 51 1009.2
20260504210853 15 236 24.1 41.8 0.00 0.00 0.00 50 1009.2
20260504210347 16 239 22.5 41.8 0.00 0.00 0.00 50 1009.1
20260504205841 16 257 20.9 38.6 0.00 0.00 0.00 49 1009.2
20260504205335 16 227 20.9 38.6 0.00 0.00 0.00 48 1009.1
20260504204829 16 240 17.7 38.6 0.00 0.00 0.00 49 1009.3
20260504204323 16 264 20.9 38.6 0.00 0.00 0.00 49 1009.3
20260504203817 16 264 22.5 40.2 0.00 0.00 0.00 49 1009.2
20260504203310 16 247 20.9 40.2 0.00 0.00 0.00 48 1009.2
20260504202805 16 253 20.9 38.6 0.00 0.00 0.00 48 1009.2
20260504202258 16 261 20.9 35.4 0.00 0.00 0.00 47 1009.1
20260504201753 16 230 22.5 35.4 0.00 0.00 0.00 46 1009.2
20260504201247 16 253 20.9 38.6 0.00 0.00 0.00 45 1009.1
20260504200740 17 277 19.3 38.6 0.00 0.00 0.00 45 1009.0
20260504200454 17 261 19.3 38.6 0.00 0.00 0.00 47 1009.3
20260504195727 17 268 22.5 38.6 0.00 0.00 0.00 46 1009.3
20260504195221 16 244 22.5 38.6 0.00 0.00 0.00 46 1009.3
20260504194715 17 253 20.9 38.6 0.00 0.00 0.00 47 1009.4
20260504194209 16 259 20.9 37.0 0.00 0.00 0.00 48 1009.4
20260504193703 16 225 20.9 37.0 0.00 0.00 0.00 48 1009.5
20260504193157 17 242 19.3 33.8 0.00 0.00 0.00 48 1009.4
20260504192917 17 213 20.9 38.6 0.00 0.00 0.00 48 1009.5
20260504192145 17 212 20.9 38.6 0.00 0.00 0.00 44 1009.5
20260504191638 17 225 20.9 37.0 0.00 0.00 0.00 45 1009.5
20260504191132 17 263 19.3 37.0 0.00 0.00 0.00 43 1009.4
20260504190626 17 246 19.3 38.6 0.00 0.00 0.00 44 1009.5
20260504190121 17 250 19.3 38.6 0.00 0.00 0.00 44 1009.5
20260504185615 17 234 19.3 41.8 0.00 0.00 0.00 44 1009.6
20260504185110 17 246 19.3 41.8 0.00 0.00 0.00 43 1009.6
20260504184603 17 247 19.3 41.8 0.00 0.00 0.00 44 1009.7
20260504184323 17 242 20.9 41.8 0.00 0.00 0.00 43 1009.8
20260504183551 17 267 20.9 38.6 0.00 0.00 0.00 43 1009.9
20260504183313 17 260 17.7 30.6 0.00 0.00 0.00 43 1009.8
20260504182539 17 237 17.7 38.6 0.00 0.00 0.00 46 1009.9
20260504182033 17 209 19.3 38.6 0.00 0.00 0.00 43 1009.9
20260504181526 17 245 20.9 41.8 0.00 0.00 0.00 42 1010.0
20260504181022 17 244 19.3 41.8 0.00 0.00 0.00 41 1010.0
20260504180515 17 250 19.3 37.0 0.00 0.00 0.00 45 1010.1
20260504180009 17 263 19.3 38.6 0.00 0.00 0.00 44 1010.2
20260504175503 17 227 19.3 38.6 0.00 0.00 0.00 43 1010.2
20260504174957 17 254 19.3 33.8 0.00 0.00 0.00 45 1010.3
20260504174715 17 274 20.9 35.4 0.00 0.00 0.00 44 1010.3
20260504174203 17 242 22.5 41.8 0.00 0.00 0.00 44 1010.1
20260504173439 17 234 20.9 41.8 0.00 0.00 0.00 40 1010.3
20260504172932 17 262 20.9 37.0 0.00 0.00 0.00 40 1010.3
20260504172426 17 248 20.9 37.0 0.00 0.00 0.00 40 1010.2
20260504172148 17 246 19.3 33.8 0.00 0.00 0.00 41 1010.2
20260504171908 17 264 19.3 33.8 0.00 0.00 0.00 38 1010.4
20260504170909 18 252 16.1 30.6 0.00 0.00 0.00 39 1010.4
20260504170403 18 270 17.7 37.0 0.00 0.00 0.00 38 1010.5
20260504160357 18 312 14.5 32.2 0.00 0.00 0.00 30 1010.8
20260504150820 17 248 14.5 32.2 0.00 0.00 0.00 31 1011.2
20260504150314 17 296 14.5 27.4 0.00 0.00 0.00 30 1011.5
20260504141303 16 275 16.1 29.0 0.00 0.00 0.00 39 1011.7
20260504141022 17 269 14.5 32.2 0.00 0.00 0.00 37 1011.7
20260504140301 17 313 14.5 32.2 0.00 0.00 0.00 36 1011.7
20260504130800 16 326 12.9 29.0 0.00 0.00 0.00 34 1012.0
20260504130300 16 336 14.5 29.0 0.00 0.00 0.00 36 1012.2
20260504120251 13 284 11.3 25.7 0.00 0.00 0.00 43 1012.3
20260504110245 11 271 9.7 19.3 0.00 0.00 0.00 47 1012.0
20260504100231 10 302 8.0 16.1 0.00 0.00 0.00 49 1011.7
20260504081558 11 300 9.7 22.5 0.00 0.00 0.00 45 1011.2
20260504081052 11 267 9.7 25.7 0.00 0.00 0.00 46 1011.2
20260504080545 11 308 8.0 25.7 0.00 0.00 0.00 46 1011.3
20260504050604 11 288 6.4 14.5 0.00 0.00 0.00 46 1010.8
20260504045843 11 284 6.4 16.1 0.00 0.00 0.00 44 1010.7
20260504045341 11 286 8.0 16.1 0.00 0.00 0.00 43 1010.8
20260504045100 11 275 6.4 16.1 0.00 0.00 0.00 45 1010.8
20260504044341 11 269 6.4 12.9 0.00 0.00 0.00 46 1010.8
20260504044105 11 265 4.8 9.7 0.00 0.00 0.00 47 1010.9
20260504043342 11 248 3.2 9.7 0.00 0.00 0.00 43 1010.8
20260504042840 11 266 3.2 6.4 0.00 0.00 0.00 42 1010.8
20260504042341 11 266 3.2 8.0 0.00 0.00 0.00 41 1010.7
20260504041841 11 302 3.2 9.7 0.00 0.00 0.00 41 1010.7
20260504041341 11 279 3.2 9.7 0.00 0.00 0.00 41 1010.7
20260504040843 11 281 4.8 9.7 0.00 0.00 0.00 40 1010.7
20260504040342 11 271 3.2 9.7 0.00 0.00 0.00 41 1010.7
20260504035842 11 287 3.2 9.7 0.00 0.00 0.00 41 1010.6
20260504035544 11 286 6.4 14.5 0.00 0.00 0.00 42 1010.6
20260504035430 11 310 4.8 9.7 0.00 0.00 0.00 41 1010.7
20260504034339 11 290 6.4 14.5 0.00 0.00 0.00 42 1010.6
20260504033834 11 263 4.8 11.3 0.00 0.00 0.00 43 1010.5
20260504033328 11 250 4.8 11.3 0.00 0.00 0.00 43 1010.5
20260504032822 11 267 6.4 11.3 0.00 0.00 0.00 44 1010.4
20260504032316 11 269 4.8 11.3 0.00 0.00 0.00 45 1010.4
20260504031813 10 272 4.8 11.3 0.00 0.00 0.00 45 1010.5
20260504031303 10 250 4.8 9.7 0.00 0.00 0.00 46 1010.5
20260504030758 10 292 4.8 9.7 0.00 0.00 0.00 47 1010.5
20260504030251 10 260 4.8 9.7 0.00 0.00 0.00 49 1010.5
20260504025746 10 278 3.2 9.7 0.00 0.00 0.00 51 1010.5
20260504025246 10 279 3.2 6.4 0.00 0.00 0.00 52 1010.5
20260504024746 10 277 3.2 6.4 0.00 0.00 0.00 52 1010.5
20260504024246 10 276 3.2 8.0 0.00 0.00 0.00 52 1010.5
20260504023743 10 252 4.8 11.3 0.00 0.00 0.00 53 1010.5
20260504023241 10 267 4.8 11.3 0.00 0.00 0.00 53 1010.6
20260504022943 10 248 3.2 6.4 0.00 0.00 0.00 54 1010.5
20260504022830 10 269 3.2 9.7 0.00 0.00 0.00 54 1010.6
20260504021738 10 276 3.2 8.0 0.00 0.00 0.00 54 1010.4
20260504021240 10 263 4.8 8.0 0.00 0.00 0.00 52 1010.4
20260504020957 10 234 4.8 6.4 0.00 0.00 0.00 51 1010.5
20260504020240 10 226 3.2 6.4 0.00 0.00 0.00 50 1010.5
20260504015740 10 232 3.2 6.4 0.00 0.00 0.00 49 1010.5
20260504015240 10 221 1.6 4.8 0.00 0.00 0.00 49 1010.5
20260504014740 10 232 3.2 8.0 0.00 0.00 0.00 51 1010.5
20260504014240 10 238 4.8 11.3 0.00 0.00 0.00 51 1010.4
20260504013739 10 240 4.8 11.3 0.00 0.00 0.00 51 1010.3
20260504013238 10 241 4.8 11.3 0.00 0.00 0.00 51 1010.3
20260504012736 10 256 4.8 11.3 0.00 0.00 0.00 50 1010.2
20260504012237 11 237 4.8 9.7 0.00 0.00 0.00 49 1010.2
20260504011737 11 255 4.8 9.7 0.00 0.00 0.00 48 1010.1
20260504011237 11 279 6.4 12.9 0.00 0.00 0.00 47 1010.0
20260504010738 11 264 6.4 12.9 0.00 0.00 0.00 48 1009.7
20260504010236 11 265 4.8 12.9 0.00 0.00 0.00 51 1009.7
20260504005741 11 263 6.4 12.9 0.00 0.00 0.00 51 1009.7
20260504005238 11 260 4.8 9.7 0.00 0.00 0.00 51 1009.7
20260504004738 11 250 4.8 9.7 0.00 0.00 0.00 50 1009.6
20260504004234 11 264 3.2 6.4 0.00 0.00 0.00 49 1009.5
20260504003733 11 252 3.2 6.4 0.00 0.00 0.00 46 1009.5
20260504003234 11 244 1.6 6.4 0.00 0.00 0.00 46 1009.4
20260504002733 11 263 0.0 4.8 0.00 0.00 0.00 41 1009.3
20260504002232 11 298 1.6 4.8 0.00 0.00 0.00 42 1009.2
20260504001733 11 336 3.2 6.4 0.00 0.00 0.00 42 1009.2
20260504001233 11 338 3.2 6.4 0.00 0.00 0.00 43 1009.1
20260504000732 11 338 4.8 8.0 0.00 0.00 0.00 44 1009.1
20260504000234 11 336 4.8 8.0 0.00 0.00 0.00 43 1009.0
20260503235952 11 351 4.8 8.0 0.00 0.00 0.00 44 1009.0